Location: Ernez
(36.4595°N, 29.8755°E)
Time: 09:44:21
(UTC+00:00)

Cosmos 407 Rocket - Pass Details

Date: 13 November 2025
Orbit: 740 x 780 km, 74.0° (Epoch: 05 December)

Event Time Altitude Azimuth Distance (km) Brightness Sun altitude
Rises 16:14:00 0° 200° (SSW) 3,219 7.2 -16.4°
Reaches altitude 10° 16:16:22 10° 202° (SSW) 2,291 6.4 -16.9°
Maximum altitude 16:21:34 75° 288° (WNW) 786 3.6 -17.9°
Drops below altitude 10° 16:26:44 10° 14° (NNE) 2,279 5.7 -18.9°
Enters shadow 16:27:38 - 15° (NNE) 2,629 6.0 -19.1°
